[[{"header":{"parameterUnit":"m.s-1","parameterCategory":1,"la1":30.2991,"la2":30.254,"lo1":-89.0895,"lo2":-89.0444,"dy":0.0017,"dx":0.0017,"nx":28,"ny":28,"refTime":"2023-09-30T21:00:00:Z","depth":0,"parameterNumber":2,"parameterNumberName":"U-component_of_WINDS"},"data":[0,0,0,0,0,0,0,0,0,0,0,0,0,0,0,0,0,0,0,0,0,0,0,0,0,0,0,0,0,0,0,0,0,0,0,0,0,0,0,0,0,0,0,0,0,0,0,0,0,0,0,0,0,0,0,0,0,0,-4.5234,-4.5234,0,-4.5216,-4.5216,-4.5216,-4.5094,-4.5091,-4.5088,-4.5086,-4.5071,-4.5074,-4.5076,0,0,0,0,0,0,0,0,0,0,0,0,0,-4.5169,-4.5171,-4.5234,-4.5234,-4.5234,-4.5216,-4.5216,-4.5216,-4.5095,-4.5091,-4.5088,-4.5084,-4.507,-4.5073,-4.5076,0,0,0,0,0,0,0,0,0,0,0,0,0,-4.5179,-4.5171,-4.5234,-4.5171,-4.5165,-4.5216,-4.5216,-4.5216,-4.5096,-4.5091,-4.5087,-4.5082,-4.507,-4.5073,-4.5077,-4.5188,0,0,-4.5087,-4.5089,0,0,0,0,0,0,0,0,-4.5179,-4.5181,-4.5181,-4.5176,-4.5169,-4.5153,-4.5188,-4.5207,-4.5097,-4.5122,-4.5085,-4.508,-4.5102,-4.5103,-4.5109,-4.5187,-4.5187,-4.5088,-4.509,-4.5092,-4.5093,0,0,0,0,0,0,0,-4.5178,-4.5182,-4.5227,-4.5181,-4.5174,-4.5146,-4.5142,-4.5191,-4.5138,-4.512,-4.5111,-4.511,-4.5098,-4.5106,-4.5108,-4.5186,-4.5088,-4.5091,-4.5093,-4.5095,-4.536,-4.5364,0,0,0,0,0,0,-4.5185,-4.5182,-4.5228,-4.5227,-4.5163,-4.515,-4.5146,-4.5163,-4.5137,-4.5128,-4.5114,-4.5104,-4.5102,-4.5104,-4.5107,-4.5239,-4.5091,-4.5095,-4.5097,-4.5355,-4.5361,-4.5366,0,0,0,0,0,0,-4.5185,-4.5191,-4.5228,-4.5202,-4.5204,-4.5156,-4.5175,-4.5165,-4.5172,-4.5132,-4.5123,-4.5132,-4.5099,-4.5102,-4.517,-4.5237,-4.5096,-4.51,-4.5349,-4.5356,-4.5363,-4.5503,0,0,0,0,0,0,-4.5183,-4.5191,-4.5232,-4.5204,-4.5206,-4.529,-4.5179,-4.5168,-4.5179,-4.5166,-4.5146,-4.5139,-4.5096,-4.5165,-4.5173,-4.524,-4.5103,-4.5343,-4.5352,-4.5361,-4.5492,-4.5514,-4.5533,0,0,0,0,0,-4.5181,-4.5272,-4.5234,-4.524,-4.5256,-4.5294,-4.5296,-4.5243,-4.5184,-4.5226,-4.5201,-4.5139,-4.5228,-4.5173,-4.5181,-4.525,-4.5338,-4.535,-4.536,-4.5483,-4.551,-4.5533,0,0,0,0,0,0,-4.5309,-4.5267,-4.5225,-4.5308,-4.5306,-4.5273,-4.5324,-4.5272,-4.5287,-4.5275,-4.521,-4.5207,-4.5285,-4.5273,-4.5213,-4.5358,-4.5273,-4.5286,-4.5363,-4.5389,-4.5409,-4.5411,-4.5106,0,0,0,0,0,-4.5347,-4.538,-4.5341,-4.5419,-4.542,-4.5373,-4.5387,-4.5347,-4.5342,-4.5341,-4.532,-4.5319,-4.5347,-4.5366,-4.5389,-4.5489,-4.5485,-4.5541,-4.5561,-4.5578,-4.5591,-4.5648,-4.5673,-4.5402,-4.5402,-4.5402,0,0,-4.5426,-4.5407,-4.5432,-4.5445,-4.5438,-4.5476,-4.5372,-4.5416,-4.5445,-4.5347,-4.5411,-4.5396,-4.539,-4.5476,-4.5512,-4.5469,-4.5665,-4.5592,-4.5606,-4.561,-4.5662,-4.5687,-4.571,-4.5409,-4.5408,-4.5407,0,0,-4.559,-4.5577,-4.5642,-4.5638,-4.5629,-4.5597,-4.5613,-4.5589,-4.5575,-4.5637,-4.5566,-4.56,-4.5647,-4.5648,-4.5655,-4.5822,-4.5768,-4.5831,-4.5939,-4.5995,-4.6016,-4.6035,-4.6098,-4.6121,-4.5843,-4.5844,-4.5844,0,-4.569,-4.5743,-4.5682,-4.5732,-4.5741,-4.5654,-4.5722,-4.572,-4.572,-4.573,-4.568,-4.5741,-4.5731,-4.5818,-4.5859,-4.5865,-4.5884,-4.5834,-4.6017,-4.6035,-4.6052,-4.6112,-4.6136,-4.5852,-4.5851,-4.585,-4.5849,0,-4.5868,-4.5906,-4.596,-4.5962,-4.5977,-4.6035,-4.5986,-4.6009,-4.5968,-4.5943,-4.6009,-4.5994,-4.6014,-4.6031,-4.5991,-4.6113,-4.6087,-4.6028,-4.5942,-4.6087,-4.6143,-4.6165,-4.5863,-4.5861,-4.5858,-4.5856,0,0,-4.6112,-4.6081,-4.6103,-4.6104,-4.6089,-4.6118,-4.6174,-4.6193,-4.6216,-4.6218,-4.6266,-4.631,-4.6257,-4.6264,-4.6224,-4.6272,-4.6411,-4.6208,-4.6207,-4.625,-4.655,-4.6597,-4.6624,-4.6374,-4.6378,-4.6381,-4.6551,0,-4.6273,-4.6365,-4.6314,-4.6414,-4.6451,-4.637,-4.6419,-4.6417,-4.6395,-4.6424,-4.64,-4.6434,-4.6358,-4.6363,-4.6407,-4.6385,-4.6471,-4.6371,-4.6421,-4.6424,-4.6429,-4.6652,-4.6701,-4.6863,-4.6572,-4.6576,-4.6578,0,-4.6472,-4.6485,-4.6589,-4.657,-4.6583,-4.6628,-4.6644,-4.6672,-4.6668,-4.6649,-4.6659,-4.6608,-4.6664,-4.6576,-4.6655,-4.6589,-4.6606,-4.6598,-4.6603,-4.6609,-4.6512,-4.6668,-4.6912,-4.6938,-4.6611,-4.6609,-4.6606,0,-4.6646,-4.6688,-4.6757,-4.676,-4.6738,-4.6773,-4.6765,-4.6757,-4.6773,-4.6787,-4.6797,-4.6818,-4.683,-4.6848,-4.6805,-4.6744,-4.6892,-4.6799,-4.688,-4.6882,-4.6917,-4.6917,-4.7173,-4.6923,-4.6922,-4.6922,-4.6921,0,-4.6833,-4.6901,-4.6835,-4.6878,-4.6953,-4.6894,-4.6971,-4.6955,-4.6949,-4.6989,-4.6919,-4.6959,-4.6898,-4.6933,-4.6899,-4.6972,-4.6977,-4.6966,-4.6957,-4.6974,-4.6976,-4.6987,-4.6976,-4.6928,-4.6927,-4.6926,-4.6924,0,-4.704,-4.6998,-4.7069,-4.7042,-4.7038,-4.7095,-4.7073,-4.7114,-4.7087,-4.7139,-4.7148,-4.7107,-4.7145,-4.7103,-4.7136,-4.7114,-4.7214,-4.7186,-4.7216,-4.7209,-4.7295,-4.7289,-4.757,-4.7605,-4.7329,-4.7332,-4.7334,0,-4.7164,-4.7215,-4.7194,-4.7216,-4.7213,-4.7248,-4.7265,-4.7209,-4.7229,-4.7231,-4.7272,-4.7303,-4.7326,-4.739,-4.7365,-4.7392,-4.7367,-4.7463,-4.737,-4.7388,-4.7373,-4.7372,-4.7379,-4.7483,-4.7487,-4.7489,-4.7491,0,-4.739,-4.7367,-4.7392,-4.7412,-4.7433,-4.7446,-4.7454,-4.7476,-4.7418,-4.7445,-4.7482,-4.75,-4.7535,-4.7569,-4.7589,-4.7583,-4.7531,-4.752,-4.7542,-4.7562,-4.7578,-4.7575,-4.7272,-4.7515,-4.7513,-4.7511,-4.751,-4.7509,-4.7561,-4.7604,-4.7598,-4.763,-4.7629,-4.7639,-4.7676,-4.7655,-4.7684,-4.7708,-4.7674,-4.7722,-4.772,-4.7741,-4.7742,-4.778,-4.774,-4.7769,-4.7777,-4.7786,-4.7801,-4.7569,-4.7783,-4.7783,-4.7782,-4.7781,-4.7781,0,-4.7787,-4.7779,-4.7809,-4.7822,-4.7848,-4.7793,-4.7799,-4.7826,-4.7868,-4.787,-4.7894,-4.7939,-4.7972,-4.795,-4.7978,-4.8014,-4.799,-4.8024,-4.8022,-4.8023,-4.7834,-4.7815,-4.8042,-4.8042,-4.8042,-4.8042,-4.8042,-4.8042,-4.7908,-4.7979,-4.7956,-4.8028,-4.8019,-4.8064,-4.8074,-4.8083,-4.8085,-4.8138,-4.8165,-4.815,-4.8143,-4.8171,-4.82,-4.8193,-4.8209,-4.8252,-4.8237,-4.8061,-4.8036,-4.8011,-4.7993,-4.8255,-4.8255,-4.8423,-4.8425,-4.8426]},{"header":{"parameterUnit":"m.s-1","parameterCategory":1,"la1":30.2991,"la2":30.254,"lo1":-89.0895,"lo2":-89.0444,"dy":0.0017,"dx":0.0017,"nx":28,"ny":28,"refTime":"2023-09-30T21:00:00:Z","depth":0,"parameterNumber":3,"parameterNumberName":"V-component_of_WINDS"},"data":[0,0,0,0,0,0,0,0,0,0,0,0,0,0,0,0,0,0,0,0,0,0,0,0,0,0,0,0,0,0,0,0,0,0,0,0,0,0,0,0,0,0,0,0,0,0,0,0,0,0,0,0,0,0,0,0,0,0,1.0559,1.0559,0,1.0498,1.0497,1.0497,1.047,1.047,1.047,1.047,1.0402,1.04,1.0398,0,0,0,0,0,0,0,0,0,0,0,0,0,1.0648,1.0646,1.0559,1.0559,1.0558,1.0498,1.0497,1.0496,1.047,1.047,1.047,1.047,1.0402,1.04,1.0398,0,0,0,0,0,0,0,0,0,0,0,0,0,1.06,1.0646,1.0559,1.0537,1.0535,1.0498,1.0497,1.0496,1.047,1.047,1.047,1.047,1.0403,1.04,1.0397,1.0376,0,0,1.0389,1.0387,0,0,0,0,0,0,0,0,1.0603,1.0597,1.0541,1.0539,1.0536,1.0492,1.0503,1.0456,1.047,1.0494,1.047,1.047,1.0431,1.0426,1.0414,1.0373,1.037,1.0388,1.0387,1.0385,1.0385,0,0,0,0,0,0,0,1.0606,1.0599,1.0535,1.0541,1.0537,1.0529,1.0522,1.0494,1.0462,1.0492,1.049,1.0484,1.043,1.0417,1.0412,1.0369,1.0388,1.0386,1.0384,1.0383,1.0307,1.0307,0,0,0,0,0,0,1.0614,1.0602,1.0537,1.0533,1.0571,1.0527,1.052,1.0506,1.0463,1.0456,1.0483,1.0483,1.0422,1.0416,1.041,1.0382,1.0385,1.0383,1.0381,1.0308,1.0307,1.0307,0,0,0,0,0,0,1.0616,1.0608,1.0539,1.0567,1.0558,1.0526,1.051,1.0504,1.0492,1.0456,1.045,1.0477,1.0422,1.0414,1.0385,1.0379,1.0381,1.0379,1.0308,1.0307,1.0307,1.0326,0,0,0,0,0,0,1.0619,1.0609,1.0602,1.0567,1.0556,1.0518,1.051,1.0503,1.0487,1.0486,1.0448,1.0442,1.0421,1.039,1.0382,1.0375,1.0377,1.0308,1.0308,1.0307,1.0326,1.0327,1.0327,0,0,0,0,0,1.0622,1.0609,1.0602,1.0594,1.0547,1.0517,1.0511,1.0489,1.0487,1.0479,1.0456,1.0443,1.0381,1.0387,1.0378,1.037,1.0308,1.0308,1.0307,1.0326,1.0327,1.0327,0,0,0,0,0,0,1.0642,1.0604,1.0596,1.0572,1.0548,1.0513,1.0502,1.049,1.0465,1.0465,1.0436,1.0428,1.0402,1.0383,1.039,1.0347,1.0344,1.0341,1.0361,1.0361,1.0362,1.0366,1.0374,0,0,0,0,0,1.0644,1.0625,1.0592,1.0574,1.0563,1.0534,1.052,1.0506,1.0479,1.0469,1.0444,1.0417,1.0392,1.0375,1.035,1.0323,1.0314,1.0314,1.0314,1.0315,1.0313,1.0297,1.0296,1.0305,1.0305,1.0305,0,0,1.0648,1.0624,1.0614,1.0577,1.0557,1.0536,1.0526,1.0504,1.0488,1.0465,1.0437,1.0418,1.0386,1.0358,1.0345,1.0342,1.0308,1.0314,1.0315,1.0312,1.0296,1.0295,1.0294,1.0304,1.0304,1.0305,0,0,1.0643,1.0624,1.0607,1.0587,1.0558,1.0539,1.0535,1.0501,1.0488,1.046,1.0442,1.0421,1.0378,1.0356,1.034,1.0327,1.0313,1.0319,1.0321,1.0306,1.0305,1.0305,1.0299,1.0298,1.0317,1.0317,1.0317,0,1.065,1.062,1.0599,1.0578,1.0562,1.0542,1.0523,1.0505,1.0468,1.0456,1.0454,1.04,1.0377,1.0344,1.0341,1.0328,1.0321,1.0323,1.0308,1.0306,1.0305,1.03,1.0298,1.0318,1.0318,1.0318,1.0318,0,1.063,1.0609,1.0598,1.0565,1.0547,1.0528,1.0502,1.0487,1.0473,1.0455,1.0425,1.0398,1.0366,1.0357,1.0343,1.0321,1.0321,1.0313,1.0309,1.0306,1.03,1.0298,1.0319,1.0319,1.0319,1.0319,0,0,1.0636,1.0592,1.0588,1.0573,1.0539,1.0521,1.05,1.0471,1.0458,1.0433,1.0413,1.0378,1.0371,1.0352,1.0335,1.0322,1.0312,1.0316,1.0314,1.0316,1.0286,1.0291,1.0289,1.0304,1.0303,1.0303,1.0288,0,1.0626,1.059,1.057,1.0541,1.052,1.0501,1.0482,1.0458,1.044,1.0419,1.0398,1.0373,1.0366,1.0354,1.034,1.0317,1.0306,1.0317,1.0284,1.0283,1.0292,1.0286,1.0292,1.028,1.0286,1.0286,1.0285,0,1.061,1.0587,1.0557,1.0525,1.0516,1.05,1.0471,1.0451,1.0423,1.0411,1.039,1.0374,1.0349,1.0347,1.0311,1.032,1.0304,1.0291,1.029,1.0285,1.0284,1.0281,1.0275,1.0273,1.0282,1.0282,1.0282,0,1.0617,1.0579,1.0555,1.0542,1.0505,1.0494,1.0477,1.045,1.0434,1.0408,1.0397,1.0368,1.0352,1.033,1.0305,1.0306,1.0272,1.0268,1.0259,1.026,1.0252,1.0253,1.0244,1.0244,1.0244,1.0244,1.0244,0,1.0608,1.059,1.0558,1.0543,1.0522,1.0499,1.0477,1.0459,1.0435,1.0415,1.0396,1.0378,1.0347,1.0324,1.0305,1.0278,1.0271,1.0259,1.0254,1.026,1.0262,1.0249,1.0249,1.0243,1.0244,1.0244,1.0244,0,1.0612,1.059,1.0563,1.0531,1.0522,1.0507,1.0478,1.0462,1.0444,1.0419,1.0411,1.0381,1.0353,1.0327,1.0289,1.0276,1.0249,1.0242,1.0259,1.0256,1.0249,1.0249,1.023,1.0226,1.023,1.023,1.023,0,1.0608,1.0593,1.056,1.0546,1.053,1.0508,1.0492,1.0468,1.0452,1.0419,1.0407,1.0378,1.0354,1.031,1.0283,1.0254,1.0246,1.0241,1.0241,1.0248,1.0245,1.0246,1.0244,1.0242,1.0242,1.0242,1.0242,0,1.0602,1.0592,1.057,1.0544,1.0526,1.0504,1.0481,1.0471,1.0442,1.0424,1.0397,1.0378,1.034,1.0311,1.0279,1.026,1.0245,1.0242,1.0239,1.0245,1.0255,1.0248,1.0259,1.0243,1.0243,1.0242,1.0242,1.0242,1.0601,1.0587,1.0561,1.0537,1.0518,1.0498,1.0481,1.0461,1.0438,1.0407,1.0393,1.0365,1.0336,1.0292,1.0273,1.0249,1.0246,1.0241,1.0239,1.0238,1.024,1.0259,1.0243,1.0243,1.0243,1.0243,1.0243,0,1.0593,1.0576,1.0555,1.0524,1.0505,1.0495,1.047,1.0454,1.043,1.0405,1.0382,1.035,1.0322,1.0293,1.0263,1.0249,1.0242,1.0242,1.0242,1.0238,1.0244,1.025,1.0249,1.0249,1.0249,1.0249,1.0249,1.0249,1.0587,1.0564,1.0551,1.0517,1.0499,1.0472,1.0458,1.0438,1.0419,1.0384,1.0361,1.0344,1.0317,1.0285,1.0258,1.025,1.0239,1.0241,1.0231,1.0238,1.0238,1.0237,1.0243,1.0239,1.0239,1.0227,1.0226,1.0226]}]]